Year,Month,Day,Hour,Minute,Value (Times are PST for windspeed in km/hr)
2005,11,04,00,00,10.10
2005,11,04,00,01,9.50
2005,11,04,00,02,10.50
2005,11,04,00,03,9.70
2005,11,04,00,04,12.80
2005,11,04,00,05,10.30
2005,11,04,00,06,12.80
2005,11,04,00,07,11.60
2005,11,04,00,08,12.00
2005,11,04,00,09,10.50
2005,11,04,00,10,11.20
2005,11,04,00,11,10.80
2005,11,04,00,12,7.50
2005,11,04,00,13,16.20
2005,11,04,00,14,11.70
2005,11,04,00,15,10.40
2005,11,04,00,16,11.40
2005,11,04,00,17,12.20
2005,11,04,00,18,11.00
2005,11,04,00,19,12.80
2005,11,04,00,20,14.80
2005,11,04,00,21,12.60
2005,11,04,00,22,15.50
2005,11,04,00,23,12.40
2005,11,04,00,24,9.60
2005,11,04,00,25,11.90
2005,11,04,00,26,14.80
2005,11,04,00,27,10.60
2005,11,04,00,28,12.60
2005,11,04,00,29,11.40
2005,11,04,00,30,16.80
2005,11,04,00,31,7.20
2005,11,04,00,32,12.80
2005,11,04,00,33,12.10
2005,11,04,00,34,15.00
2005,11,04,00,35,10.30
2005,11,04,00,36,17.00
2005,11,04,00,37,16.80
2005,11,04,00,38,14.90
2005,11,04,00,39,17.20
2005,11,04,00,40,17.20
2005,11,04,00,41,9.90
2005,11,04,00,42,18.30
2005,11,04,00,43,20.30
2005,11,04,00,44,12.40
2005,11,04,00,45,18.70
2005,11,04,00,46,16.40
2005,11,04,00,47,19.70
2005,11,04,00,48,17.30
2005,11,04,00,49,19.00
2005,11,04,00,50,14.90
2005,11,04,00,51,15.10
2005,11,04,00,52,15.50
2005,11,04,00,53,16.70
2005,11,04,00,54,15.40
2005,11,04,00,55,16.00
2005,11,04,00,56,13.70
2005,11,04,00,57,15.10
2005,11,04,00,58,16.80
2005,11,04,00,59,15.40
2005,11,04,01,00,13.30
2005,11,04,01,01,12.90
2005,11,04,01,02,10.60
2005,11,04,01,03,10.40
2005,11,04,01,04,14.00
2005,11,04,01,05,13.40
2005,11,04,01,06,8.30
2005,11,04,01,07,11.80
2005,11,04,01,08,9.90
2005,11,04,01,09,9.10
2005,11,04,01,10,13.00
2005,11,04,01,11,11.00
2005,11,04,01,12,9.30
2005,11,04,01,13,8.90
2005,11,04,01,14,11.90
2005,11,04,01,15,11.50
2005,11,04,01,16,10.60
2005,11,04,01,17,10.90
2005,11,04,01,18,10.00
2005,11,04,01,19,9.20
2005,11,04,01,20,9.10
2005,11,04,01,21,11.60
2005,11,04,01,22,10.20
2005,11,04,01,23,9.10
2005,11,04,01,24,8.10
2005,11,04,01,25,9.90
2005,11,04,01,26,10.50
2005,11,04,01,27,8.60
2005,11,04,01,28,18.50
2005,11,04,01,29,17.10
2005,11,04,01,30,21.10
2005,11,04,01,31,20.40
2005,11,04,01,32,13.00
2005,11,04,01,33,11.70
2005,11,04,01,34,13.90
2005,11,04,01,35,16.30
2005,11,04,01,36,14.60
2005,11,04,01,37,11.80
2005,11,04,01,38,9.30
2005,11,04,01,39,7.30
2005,11,04,01,40,10.80
2005,11,04,01,41,11.90
2005,11,04,01,42,14.20
2005,11,04,01,43,10.20
2005,11,04,01,44,9.70
2005,11,04,01,45,10.60
2005,11,04,01,46,15.90
2005,11,04,01,47,10.90
2005,11,04,01,48,14.80
2005,11,04,01,49,15.40
2005,11,04,01,50,19.20
2005,11,04,01,51,20.10
2005,11,04,01,52,22.00
2005,11,04,01,53,16.80
2005,11,04,01,54,13.80
2005,11,04,01,55,10.70
2005,11,04,01,56,19.90
2005,11,04,01,57,9.50
2005,11,04,01,58,6.90
2005,11,04,01,59,15.60
2005,11,04,02,00,11.70
2005,11,04,02,01,16.20
2005,11,04,02,02,18.30
2005,11,04,02,03,15.20
2005,11,04,02,04,9.20
2005,11,04,02,05,14.20
2005,11,04,02,06,13.00
2005,11,04,02,07,7.70
2005,11,04,02,08,11.20
2005,11,04,02,09,12.00
2005,11,04,02,10,9.20
2005,11,04,02,11,8.80
2005,11,04,02,12,11.80
2005,11,04,02,13,12.20
2005,11,04,02,14,8.30
2005,11,04,02,15,10.10
2005,11,04,02,16,6.50
2005,11,04,02,17,10.90
2005,11,04,02,18,8.50
2005,11,04,02,19,7.80
2005,11,04,02,20,9.20
2005,11,04,02,21,9.80
2005,11,04,02,22,7.50
2005,11,04,02,23,10.60
2005,11,04,02,24,9.70
2005,11,04,02,25,7.00
2005,11,04,02,26,5.30
2005,11,04,02,27,5.10
2005,11,04,02,28,12.90
2005,11,04,02,29,11.40
2005,11,04,02,30,11.30
2005,11,04,02,31,11.60
2005,11,04,02,32,12.10
2005,11,04,02,33,10.30
2005,11,04,02,34,9.50
2005,11,04,02,35,10.40
2005,11,04,02,36,8.50
2005,11,04,02,37,14.20
2005,11,04,02,38,8.60
2005,11,04,02,39,11.00
2005,11,04,02,40,12.60
2005,11,04,02,41,9.30
2005,11,04,02,42,5.90
2005,11,04,02,43,10.80
2005,11,04,02,44,13.30
2005,11,04,02,45,11.30
2005,11,04,02,46,13.80
2005,11,04,02,47,14.10
2005,11,04,02,48,6.40
2005,11,04,02,49,15.10
2005,11,04,02,50,10.00
2005,11,04,02,51,5.10
2005,11,04,02,52,10.90
2005,11,04,02,53,8.70
2005,11,04,02,54,9.30
2005,11,04,02,55,9.90
2005,11,04,02,56,5.10
2005,11,04,02,57,9.60
2005,11,04,02,58,9.50
2005,11,04,02,59,3.40
2005,11,04,03,00,6.20
2005,11,04,03,01,8.50
2005,11,04,03,02,4.50
2005,11,04,03,03,7.30
2005,11,04,03,04,4.70
2005,11,04,03,05,8.00
2005,11,04,03,06,13.60
2005,11,04,03,07,4.40
2005,11,04,03,08,4.40
2005,11,04,03,09,4.50
2005,11,04,03,10,4.30
2005,11,04,03,11,4.40
2005,11,04,03,12,6.00
2005,11,04,03,13,5.70
2005,11,04,03,14,3.80
2005,11,04,03,15,4.20
2005,11,04,03,16,5.30
2005,11,04,03,17,4.60
2005,11,04,03,18,7.20
2005,11,04,03,19,8.00
2005,11,04,03,20,5.10
2005,11,04,03,21,6.00
2005,11,04,03,22,3.40
2005,11,04,03,23,3.60
2005,11,04,03,24,5.90
2005,11,04,03,25,4.90
2005,11,04,03,26,5.90
2005,11,04,03,27,5.80
2005,11,04,03,28,5.00
2005,11,04,03,29,5.40
2005,11,04,03,30,6.20
2005,11,04,03,31,5.20
2005,11,04,03,32,6.40
2005,11,04,03,33,5.40
2005,11,04,03,34,5.80
2005,11,04,03,35,6.30
2005,11,04,03,36,4.10
2005,11,04,03,37,6.50
2005,11,04,03,38,5.00
2005,11,04,03,39,3.90
2005,11,04,03,40,2.90
2005,11,04,03,41,4.70
2005,11,04,03,42,4.50
2005,11,04,03,43,6.40
2005,11,04,03,44,8.10
2005,11,04,03,45,6.70
2005,11,04,03,46,6.30
2005,11,04,03,47,6.00
2005,11,04,03,48,6.30
2005,11,04,03,49,3.20
2005,11,04,03,50,3.50
2005,11,04,03,51,6.70
2005,11,04,03,52,5.40
2005,11,04,03,53,6.10
2005,11,04,03,54,8.50
2005,11,04,03,55,5.50
2005,11,04,03,56,8.00
2005,11,04,03,57,5.80
2005,11,04,03,58,5.00
2005,11,04,03,59,6.90
2005,11,04,04,00,9.00
2005,11,04,04,01,6.60
2005,11,04,04,02,8.00
2005,11,04,04,03,8.60
2005,11,04,04,04,7.60
2005,11,04,04,05,7.80
2005,11,04,04,06,8.10
2005,11,04,04,07,9.70
2005,11,04,04,08,6.40
2005,11,04,04,09,5.90
2005,11,04,04,10,12.10
2005,11,04,04,11,13.70
2005,11,04,04,12,17.50
2005,11,04,04,13,14.80
2005,11,04,04,14,10.60
2005,11,04,04,15,9.50
2005,11,04,04,16,10.20
2005,11,04,04,17,9.00
2005,11,04,04,18,8.30
2005,11,04,04,19,8.10
2005,11,04,04,20,9.70
2005,11,04,04,21,7.50
2005,11,04,04,22,7.30
2005,11,04,04,23,6.90
2005,11,04,04,24,7.60
2005,11,04,04,25,6.00
2005,11,04,04,26,3.90
2005,11,04,04,27,3.70
2005,11,04,04,28,3.90
2005,11,04,04,29,5.10
2005,11,04,04,30,2.60
2005,11,04,04,31,7.10
2005,11,04,04,32,5.10
2005,11,04,04,33,10.10
2005,11,04,04,34,4.80
2005,11,04,04,35,7.50
2005,11,04,04,36,4.50
2005,11,04,04,37,2.00
2005,11,04,04,38,5.90
2005,11,04,04,39,7.00
2005,11,04,04,40,11.90
2005,11,04,04,41,5.40
2005,11,04,04,42,10.10
2005,11,04,04,43,13.80
2005,11,04,04,44,6.60
2005,11,04,04,45,9.10
2005,11,04,04,46,9.90
2005,11,04,04,47,6.80
2005,11,04,04,48,6.90
2005,11,04,04,49,7.10
2005,11,04,04,50,7.70
2005,11,04,04,51,8.20
2005,11,04,04,52,5.80
2005,11,04,04,53,7.60
2005,11,04,04,54,10.90
2005,11,04,04,55,6.20
2005,11,04,04,56,6.80
2005,11,04,04,57,4.10
2005,11,04,04,58,0.90
2005,11,04,04,59,0.00
2005,11,04,05,00,0.00
2005,11,04,05,01,1.10
2005,11,04,05,02,0.70
2005,11,04,05,03,1.00
2005,11,04,05,04,0.10
2005,11,04,05,05,1.60
2005,11,04,05,06,1.20
2005,11,04,05,07,2.00
2005,11,04,05,08,3.40
2005,11,04,05,09,4.70
2005,11,04,05,10,5.30
2005,11,04,05,11,3.90
2005,11,04,05,12,4.20
2005,11,04,05,13,3.20
2005,11,04,05,14,0.90
2005,11,04,05,15,0.40
2005,11,04,05,16,3.00
2005,11,04,05,17,3.10
2005,11,04,05,18,2.90
2005,11,04,05,19,2.50
2005,11,04,05,20,3.30
2005,11,04,05,21,1.70
2005,11,04,05,22,1.90
2005,11,04,05,23,1.60
2005,11,04,05,24,2.10
2005,11,04,05,25,3.40
2005,11,04,05,26,4.70
2005,11,04,05,27,6.00
2005,11,04,05,28,4.30
2005,11,04,05,29,3.50
2005,11,04,05,30,6.00
2005,11,04,05,31,4.70
2005,11,04,05,32,6.20
2005,11,04,05,33,8.10
2005,11,04,05,34,7.00
2005,11,04,05,35,7.00
2005,11,04,05,36,5.50
2005,11,04,05,37,7.80
2005,11,04,05,38,5.30
2005,11,04,05,39,6.40
2005,11,04,05,40,6.60
2005,11,04,05,41,8.00
2005,11,04,05,42,6.70
2005,11,04,05,43,5.60
2005,11,04,05,44,6.40
2005,11,04,05,45,6.70
2005,11,04,05,46,6.80
2005,11,04,05,47,5.80
2005,11,04,05,48,5.50
2005,11,04,05,49,4.10
2005,11,04,05,50,3.90
2005,11,04,05,51,4.70
2005,11,04,05,52,7.10
2005,11,04,05,53,5.10
2005,11,04,05,54,7.50
2005,11,04,05,55,5.50
2005,11,04,05,56,7.10
2005,11,04,05,57,8.90
2005,11,04,05,58,5.80
2005,11,04,05,59,5.70
2005,11,04,06,00,6.20
2005,11,04,06,01,6.40
2005,11,04,06,02,6.10
2005,11,04,06,03,6.30
2005,11,04,06,04,8.00
2005,11,04,06,05,9.90
2005,11,04,06,06,10.10
2005,11,04,06,07,10.90
2005,11,04,06,08,11.90
2005,11,04,06,09,8.10
2005,11,04,06,10,6.80
2005,11,04,06,11,8.30
2005,11,04,06,12,7.10
2005,11,04,06,13,5.80
2005,11,04,06,14,7.20
2005,11,04,06,15,5.60
2005,11,04,06,16,6.30
2005,11,04,06,17,7.20
2005,11,04,06,18,4.50
2005,11,04,06,19,7.20
2005,11,04,06,20,5.30
2005,11,04,06,21,8.00
2005,11,04,06,22,6.70
2005,11,04,06,23,4.40
2005,11,04,06,24,9.90
2005,11,04,06,25,8.80
2005,11,04,06,26,6.20
2005,11,04,06,27,11.80
2005,11,04,06,28,11.10
2005,11,04,06,29,7.90
2005,11,04,06,30,9.10
2005,11,04,06,31,6.90
2005,11,04,06,32,8.60
2005,11,04,06,33,10.60
2005,11,04,06,34,6.20
2005,11,04,06,35,8.10
2005,11,04,06,36,13.80
2005,11,04,06,37,9.70
2005,11,04,06,38,8.10
2005,11,04,06,39,11.70
2005,11,04,06,40,11.40
2005,11,04,06,41,5.60
2005,11,04,06,42,3.40
2005,11,04,06,43,6.10
2005,11,04,06,44,10.20
2005,11,04,06,45,7.10
2005,11,04,06,46,8.40
2005,11,04,06,47,7.80
2005,11,04,06,48,8.20
2005,11,04,06,49,10.70
2005,11,04,06,50,7.70
2005,11,04,06,51,7.60
2005,11,04,06,52,7.30
2005,11,04,06,53,10.50
2005,11,04,06,54,10.50
2005,11,04,06,55,3.80
2005,11,04,06,56,5.70
2005,11,04,06,57,5.50
2005,11,04,06,58,8.70
2005,11,04,06,59,5.80
2005,11,04,07,00,5.10
2005,11,04,07,01,3.60
2005,11,04,07,02,9.50
2005,11,04,07,03,6.30
2005,11,04,07,04,7.50
2005,11,04,07,05,8.10
2005,11,04,07,06,9.40
2005,11,04,07,07,8.50
2005,11,04,07,08,4.80
2005,11,04,07,09,7.20
2005,11,04,07,10,8.60
2005,11,04,07,11,7.00
2005,11,04,07,12,8.00
2005,11,04,07,13,5.60
2005,11,04,07,14,9.20
2005,11,04,07,15,8.30
2005,11,04,07,16,8.50
2005,11,04,07,17,8.90
2005,11,04,07,18,5.80
2005,11,04,07,19,12.00
2005,11,04,07,20,13.20
2005,11,04,07,21,8.30
2005,11,04,07,22,7.60
2005,11,04,07,23,11.20
2005,11,04,07,24,8.20
2005,11,04,07,25,10.40
2005,11,04,07,26,8.60
2005,11,04,07,27,10.10
2005,11,04,07,28,12.40
2005,11,04,07,29,8.80
2005,11,04,07,30,8.90
2005,11,04,07,31,6.70
2005,11,04,07,32,11.80
2005,11,04,07,33,7.40
2005,11,04,07,34,8.00
2005,11,04,07,35,9.30
2005,11,04,07,36,11.90
2005,11,04,07,37,10.40
2005,11,04,07,38,9.60
2005,11,04,07,39,6.90
2005,11,04,07,40,10.40
2005,11,04,07,41,12.50
2005,11,04,07,42,7.70
2005,11,04,07,43,6.40
2005,11,04,07,44,9.40
2005,11,04,07,45,6.40
2005,11,04,07,46,7.80
2005,11,04,07,47,9.30
2005,11,04,07,48,6.60
2005,11,04,07,49,7.20
2005,11,04,07,50,7.30
2005,11,04,07,51,7.90
2005,11,04,07,52,6.70
2005,11,04,07,53,10.80
2005,11,04,07,54,10.90
2005,11,04,07,55,10.90
2005,11,04,07,56,7.40
2005,11,04,07,57,10.30
2005,11,04,07,58,8.90
2005,11,04,07,59,6.00
2005,11,04,08,00,5.60
2005,11,04,08,01,7.10
2005,11,04,08,02,7.40
2005,11,04,08,03,8.90
2005,11,04,08,04,11.60
2005,11,04,08,05,10.50
2005,11,04,08,06,8.20
2005,11,04,08,07,10.30
2005,11,04,08,08,7.80
2005,11,04,08,09,7.70
2005,11,04,08,10,7.70
2005,11,04,08,11,6.40
2005,11,04,08,12,9.70
2005,11,04,08,13,5.90
2005,11,04,08,14,6.40
2005,11,04,08,15,4.70
2005,11,04,08,16,7.10
2005,11,04,08,17,8.30
2005,11,04,08,18,6.00
2005,11,04,08,19,5.90
2005,11,04,08,20,6.30
2005,11,04,08,21,8.90
2005,11,04,08,22,4.20
2005,11,04,08,23,5.50
2005,11,04,08,24,6.20
2005,11,04,08,25,7.10
2005,11,04,08,26,4.70
2005,11,04,08,27,6.40
2005,11,04,08,28,5.00
2005,11,04,08,29,6.10
2005,11,04,08,30,7.30
2005,11,04,08,31,9.30
2005,11,04,08,32,6.80
2005,11,04,08,33,4.50
2005,11,04,08,34,6.70
2005,11,04,08,35,9.90
2005,11,04,08,36,7.30
2005,11,04,08,37,7.80
2005,11,04,08,38,5.60
2005,11,04,08,39,3.70
2005,11,04,08,40,3.80
2005,11,04,08,41,8.30
2005,11,04,08,42,7.50
2005,11,04,08,43,5.60
2005,11,04,08,44,4.90
2005,11,04,08,45,4.80
2005,11,04,08,46,6.50
2005,11,04,08,47,6.90
2005,11,04,08,48,6.40
2005,11,04,08,49,5.70
2005,11,04,08,50,6.30
2005,11,04,08,51,5.80
2005,11,04,08,52,5.10
2005,11,04,08,53,6.00
2005,11,04,08,54,3.50
2005,11,04,08,55,1.80
2005,11,04,08,56,1.70
2005,11,04,08,57,2.30
2005,11,04,08,58,0.00
2005,11,04,08,59,0.00
2005,11,04,09,00,0.00
2005,11,04,09,01,0.00
2005,11,04,09,02,1.90
2005,11,04,09,03,3.10
2005,11,04,09,04,1.90
2005,11,04,09,05,5.40
2005,11,04,09,06,2.90
2005,11,04,09,07,0.20
2005,11,04,09,08,0.00
2005,11,04,09,09,1.40
2005,11,04,09,10,0.00
2005,11,04,09,11,0.00
2005,11,04,09,12,0.00
2005,11,04,09,13,0.50
2005,11,04,09,14,2.80
2005,11,04,09,15,2.60
2005,11,04,09,16,1.90
2005,11,04,09,17,0.10
2005,11,04,09,18,0.00
2005,11,04,09,19,1.00
2005,11,04,09,20,2.70
2005,11,04,09,21,4.30
2005,11,04,09,22,5.10
2005,11,04,09,23,4.90
2005,11,04,09,24,3.90
2005,11,04,09,25,2.70
2005,11,04,09,26,2.50
2005,11,04,09,27,3.00
2005,11,04,09,28,0.80
2005,11,04,09,29,1.50
2005,11,04,09,30,2.00
2005,11,04,09,31,0.90
2005,11,04,09,32,2.20
2005,11,04,09,33,2.50
2005,11,04,09,34,2.60
2005,11,04,09,35,3.40
2005,11,04,09,36,2.50
2005,11,04,09,37,2.50
2005,11,04,09,38,5.70
2005,11,04,09,39,3.90
2005,11,04,09,40,0.80
2005,11,04,09,41,0.40
2005,11,04,09,42,0.00
2005,11,04,09,43,0.90
2005,11,04,09,44,1.60
2005,11,04,09,45,0.00
2005,11,04,09,46,0.00
2005,11,04,09,47,0.90
2005,11,04,09,48,2.80
2005,11,04,09,49,3.90
2005,11,04,09,50,3.40
2005,11,04,09,51,4.60
2005,11,04,09,52,5.00
2005,11,04,09,53,4.70
2005,11,04,09,54,4.70
2005,11,04,09,55,6.40
2005,11,04,09,56,5.60
2005,11,04,09,57,4.20
2005,11,04,09,58,3.80
2005,11,04,09,59,3.90
2005,11,04,10,00,5.80
2005,11,04,10,01,5.20
2005,11,04,10,02,5.80
2005,11,04,10,03,6.50
2005,11,04,10,04,4.50
2005,11,04,10,05,3.40
2005,11,04,10,06,4.20
2005,11,04,10,07,4.10
2005,11,04,10,08,3.10
2005,11,04,10,09,3.40
2005,11,04,10,10,4.10
2005,11,04,10,11,5.10
2005,11,04,10,12,4.70
2005,11,04,10,13,5.40
2005,11,04,10,14,4.40
2005,11,04,10,15,2.20
2005,11,04,10,16,0.10
2005,11,04,10,17,0.80
2005,11,04,10,18,0.30
2005,11,04,10,19,0.00
2005,11,04,10,20,0.00
2005,11,04,10,21,0.00
2005,11,04,10,22,2.50
2005,11,04,10,23,0.40
2005,11,04,10,24,0.00
2005,11,04,10,25,0.90
2005,11,04,10,26,1.40
2005,11,04,10,27,0.10
2005,11,04,10,28,2.80
2005,11,04,10,29,6.40
2005,11,04,10,30,1.10
2005,11,04,10,31,1.80
2005,11,04,10,32,4.60
2005,11,04,10,33,7.90
2005,11,04,10,34,8.30
2005,11,04,10,35,7.30
2005,11,04,10,36,7.90
2005,11,04,10,37,6.90
2005,11,04,10,38,5.80
2005,11,04,10,39,7.00
2005,11,04,10,40,3.00
2005,11,04,10,41,0.20
2005,11,04,10,42,0.80
2005,11,04,10,43,3.70
2005,11,04,10,44,3.20
2005,11,04,10,45,1.20
2005,11,04,10,46,3.10
2005,11,04,10,47,6.40
2005,11,04,10,48,9.60
2005,11,04,10,49,6.50
2005,11,04,10,50,5.30
2005,11,04,10,51,4.70
2005,11,04,10,52,5.20
2005,11,04,10,53,2.70
2005,11,04,10,54,4.50
2005,11,04,10,55,3.60
2005,11,04,10,56,3.60
2005,11,04,10,57,4.90
2005,11,04,10,58,2.50
2005,11,04,10,59,2.50
2005,11,04,11,00,4.30
2005,11,04,11,01,4.80
2005,11,04,11,02,4.30
2005,11,04,11,03,3.10
2005,11,04,11,04,2.70
2005,11,04,11,05,5.80
2005,11,04,11,06,4.00
2005,11,04,11,07,3.90
2005,11,04,11,08,3.20
2005,11,04,11,09,6.90
2005,11,04,11,10,6.60
2005,11,04,11,11,3.50
2005,11,04,11,12,2.40
2005,11,04,11,13,3.20
2005,11,04,11,14,4.90
2005,11,04,11,15,6.70
2005,11,04,11,16,6.90
2005,11,04,11,17,7.80
2005,11,04,11,18,6.50
2005,11,04,11,19,7.70
2005,11,04,11,20,6.40
2005,11,04,11,21,6.40
2005,11,04,11,22,7.20
2005,11,04,11,23,7.90
2005,11,04,11,24,9.00
2005,11,04,11,25,6.40
2005,11,04,11,26,6.80
2005,11,04,11,27,6.40
2005,11,04,11,28,6.60
2005,11,04,11,29,7.40
2005,11,04,11,30,6.30
2005,11,04,11,31,6.00
2005,11,04,11,32,3.80
2005,11,04,11,33,5.80
2005,11,04,11,34,6.50
2005,11,04,11,35,6.10
2005,11,04,11,36,3.00
2005,11,04,11,37,3.70
2005,11,04,11,38,3.10
2005,11,04,11,39,7.00
2005,11,04,11,40,4.40
2005,11,04,11,41,6.40
2005,11,04,11,42,7.00
2005,11,04,11,43,4.20
2005,11,04,11,44,7.10
2005,11,04,11,45,10.10
2005,11,04,11,46,17.90
2005,11,04,11,47,11.00
2005,11,04,11,48,7.50
2005,11,04,11,49,8.90
2005,11,04,11,50,7.20
2005,11,04,11,51,7.60
2005,11,04,11,52,7.30
2005,11,04,11,53,7.40
2005,11,04,11,54,8.90
2005,11,04,11,55,7.50
2005,11,04,11,56,5.10
2005,11,04,11,57,5.90
2005,11,04,11,58,7.40
2005,11,04,11,59,10.80
2005,11,04,12,00,11.90
2005,11,04,12,01,9.40
2005,11,04,12,02,8.90
2005,11,04,12,03,12.40
2005,11,04,12,04,12.90
2005,11,04,12,05,6.90
2005,11,04,12,06,7.80
2005,11,04,12,07,8.10
2005,11,04,12,08,7.90
2005,11,04,12,09,12.00
2005,11,04,12,10,10.50
2005,11,04,12,11,10.10
2005,11,04,12,12,9.00
2005,11,04,12,13,6.90
2005,11,04,12,14,8.60
2005,11,04,12,15,7.30
2005,11,04,12,16,5.90
2005,11,04,12,17,5.30
2005,11,04,12,18,10.40
2005,11,04,12,19,10.10
2005,11,04,12,20,5.50
2005,11,04,12,21,5.90
2005,11,04,12,22,6.50
2005,11,04,12,23,6.40
2005,11,04,12,24,4.70
2005,11,04,12,25,6.60
2005,11,04,12,26,5.60
2005,11,04,12,27,8.90
2005,11,04,12,28,5.80
2005,11,04,12,29,5.70
2005,11,04,12,30,7.60
2005,11,04,12,31,8.20
2005,11,04,12,32,9.10
2005,11,04,12,33,9.70
2005,11,04,12,34,11.40
2005,11,04,12,35,15.80
2005,11,04,12,36,21.30
2005,11,04,12,37,16.30
2005,11,04,12,38,16.70
2005,11,04,12,39,17.90
2005,11,04,12,40,18.20
2005,11,04,12,41,19.20
2005,11,04,12,42,10.60
2005,11,04,12,43,9.10
2005,11,04,12,44,9.80
2005,11,04,12,45,6.80
2005,11,04,12,46,6.00
2005,11,04,12,47,6.80
2005,11,04,12,48,9.30
2005,11,04,12,49,10.90
2005,11,04,12,50,16.70
2005,11,04,12,51,12.60
2005,11,04,12,52,14.60
2005,11,04,12,53,12.90
2005,11,04,12,54,19.80
2005,11,04,12,55,22.50
2005,11,04,12,56,21.30
2005,11,04,12,57,12.70
2005,11,04,12,58,13.00
2005,11,04,12,59,13.60
2005,11,04,13,00,12.10
2005,11,04,13,01,14.10
2005,11,04,13,02,14.60
2005,11,04,13,03,15.90
2005,11,04,13,04,19.70
2005,11,04,13,05,14.70
2005,11,04,13,06,9.70
2005,11,04,13,07,10.30
2005,11,04,13,08,11.90
2005,11,04,13,09,14.80
2005,11,04,13,10,11.40
2005,11,04,13,11,14.60
2005,11,04,13,12,16.60
2005,11,04,13,13,14.70
2005,11,04,13,14,11.40
2005,11,04,13,15,10.60
2005,11,04,13,16,7.00
2005,11,04,13,17,8.50
2005,11,04,13,18,6.70
2005,11,04,13,19,12.50
2005,11,04,13,20,9.60
2005,11,04,13,21,6.80
2005,11,04,13,22,5.90
2005,11,04,13,23,8.10
2005,11,04,13,24,7.80
2005,11,04,13,25,9.50
2005,11,04,13,26,11.90
2005,11,04,13,27,7.10
2005,11,04,13,28,8.10
2005,11,04,13,29,9.80
2005,11,04,13,30,7.00
2005,11,04,13,31,8.00
2005,11,04,13,32,9.80
2005,11,04,13,33,6.00
2005,11,04,13,34,6.30
2005,11,04,13,35,11.30
2005,11,04,13,36,9.20
2005,11,04,13,37,8.80
2005,11,04,13,38,7.60
2005,11,04,13,39,7.10
2005,11,04,13,40,7.50
2005,11,04,13,41,8.30
2005,11,04,13,42,4.70
2005,11,04,13,43,9.60
2005,11,04,13,44,10.00
2005,11,04,13,45,6.40
2005,11,04,13,46,5.70
2005,11,04,13,47,11.50
2005,11,04,13,48,4.30
2005,11,04,13,49,8.00
2005,11,04,13,50,8.10
2005,11,04,13,51,9.20
2005,11,04,13,52,7.40
2005,11,04,13,53,12.00
2005,11,04,13,54,10.00
2005,11,04,13,55,8.50
2005,11,04,13,56,8.60
2005,11,04,13,57,9.30
2005,11,04,13,58,12.50
2005,11,04,13,59,10.50
2005,11,04,14,00,6.70
2005,11,04,14,01,8.40
2005,11,04,14,02,6.40
2005,11,04,14,03,10.30
2005,11,04,14,04,9.90
2005,11,04,14,05,5.80
2005,11,04,14,06,9.80
2005,11,04,14,07,10.30
2005,11,04,14,08,11.30
2005,11,04,14,09,12.40
2005,11,04,14,10,15.70
2005,11,04,14,11,16.10
2005,11,04,14,12,9.70
2005,11,04,14,13,8.60
2005,11,04,14,14,11.40
2005,11,04,14,15,9.90
2005,11,04,14,16,9.00
2005,11,04,14,17,16.30
2005,11,04,14,18,9.50
2005,11,04,14,19,11.30
2005,11,04,14,20,16.30
2005,11,04,14,21,17.10
2005,11,04,14,22,12.30
2005,11,04,14,23,11.00
2005,11,04,14,24,11.90
2005,11,04,14,25,11.70
2005,11,04,14,26,14.60
2005,11,04,14,27,15.10
2005,11,04,14,28,10.90
2005,11,04,14,29,13.70
2005,11,04,14,30,4.30
2005,11,04,14,31,12.50
2005,11,04,14,32,15.40
2005,11,04,14,33,15.80
2005,11,04,14,34,15.70
2005,11,04,14,35,13.00
2005,11,04,14,36,16.80
2005,11,04,14,37,12.60
2005,11,04,14,38,13.80
2005,11,04,14,39,15.90
2005,11,04,14,40,13.50
2005,11,04,14,41,12.40
2005,11,04,14,42,9.40
2005,11,04,14,43,12.50
2005,11,04,14,44,7.50
2005,11,04,14,45,7.40
2005,11,04,14,46,10.10
2005,11,04,14,47,11.70
2005,11,04,14,48,12.90
2005,11,04,14,49,18.10
2005,11,04,14,50,16.90
2005,11,04,14,51,17.90
2005,11,04,14,52,13.70
2005,11,04,14,53,15.70
2005,11,04,14,54,9.40
2005,11,04,14,55,8.60
2005,11,04,14,56,8.40
2005,11,04,14,57,12.20
2005,11,04,14,58,9.30
2005,11,04,14,59,9.80
2005,11,04,15,00,11.60
2005,11,04,15,01,14.10
2005,11,04,15,02,9.00
2005,11,04,15,03,11.80
2005,11,04,15,04,10.30
2005,11,04,15,05,12.50
2005,11,04,15,06,27.40
2005,11,04,15,07,13.40
2005,11,04,15,08,12.40
2005,11,04,15,09,12.20
2005,11,04,15,10,9.30
2005,11,04,15,11,9.60
2005,11,04,15,12,13.00
2005,11,04,15,13,10.50
2005,11,04,15,14,8.10
2005,11,04,15,15,12.90
2005,11,04,15,16,12.20
2005,11,04,15,17,12.80
2005,11,04,15,18,13.00
2005,11,04,15,19,16.30
2005,11,04,15,20,14.10
2005,11,04,15,21,14.20
2005,11,04,15,22,13.80
2005,11,04,15,23,11.80
2005,11,04,15,24,13.80
2005,11,04,15,25,9.70
2005,11,04,15,26,13.70
2005,11,04,15,27,14.00
2005,11,04,15,28,11.90
2005,11,04,15,29,9.10
2005,11,04,15,30,9.70
2005,11,04,15,31,8.40
2005,11,04,15,32,10.50
2005,11,04,15,33,12.50
2005,11,04,15,34,11.60
2005,11,04,15,35,9.10
2005,11,04,15,36,6.90
2005,11,04,15,37,9.70
2005,11,04,15,38,11.60
2005,11,04,15,39,11.90
2005,11,04,15,40,16.00
2005,11,04,15,41,13.40
2005,11,04,15,42,12.10
2005,11,04,15,43,11.90
2005,11,04,15,44,14.70
2005,11,04,15,45,10.40
2005,11,04,15,46,15.00
2005,11,04,15,47,8.20
2005,11,04,15,48,7.90
2005,11,04,15,49,13.40
2005,11,04,15,50,12.40
2005,11,04,15,51,10.40
2005,11,04,15,52,6.40
2005,11,04,15,53,7.40
2005,11,04,15,54,12.20
2005,11,04,15,55,17.30
2005,11,04,15,56,12.60
2005,11,04,15,57,9.60
2005,11,04,15,58,19.70
2005,11,04,15,59,15.60
2005,11,04,16,00,16.00
2005,11,04,16,01,10.60
2005,11,04,16,02,19.50
2005,11,04,16,03,17.90
2005,11,04,16,04,20.80
2005,11,04,16,05,22.00
2005,11,04,16,06,18.30
2005,11,04,16,07,17.40
2005,11,04,16,08,18.40
2005,11,04,16,09,14.80
2005,11,04,16,10,17.90
2005,11,04,16,11,15.80
2005,11,04,16,12,14.90
2005,11,04,16,13,20.30
2005,11,04,16,14,10.40
2005,11,04,16,15,16.00
2005,11,04,16,16,14.90
2005,11,04,16,17,16.90
2005,11,04,16,18,12.30
2005,11,04,16,19,17.10
2005,11,04,16,20,14.50
2005,11,04,16,21,10.70
2005,11,04,16,22,12.90
2005,11,04,16,23,11.90
2005,11,04,16,24,15.30
2005,11,04,16,25,10.00
2005,11,04,16,26,15.00
2005,11,04,16,27,18.50
2005,11,04,16,28,14.40
2005,11,04,16,29,12.50
2005,11,04,16,30,11.00
2005,11,04,16,31,8.70
2005,11,04,16,32,13.70
2005,11,04,16,33,10.60
2005,11,04,16,34,8.00
2005,11,04,16,35,12.60
2005,11,04,16,36,11.60
2005,11,04,16,37,11.20
2005,11,04,16,38,12.20
2005,11,04,16,39,12.20
2005,11,04,16,40,14.30
2005,11,04,16,41,12.20
2005,11,04,16,42,12.30
2005,11,04,16,43,5.90
2005,11,04,16,44,7.40
2005,11,04,16,45,5.00
2005,11,04,16,46,6.30
2005,11,04,16,47,6.80
2005,11,04,16,48,12.90
2005,11,04,16,49,12.10
2005,11,04,16,50,10.40
2005,11,04,16,51,11.40
2005,11,04,16,52,9.40
2005,11,04,16,53,12.50
2005,11,04,16,54,13.50
2005,11,04,16,55,9.30
2005,11,04,16,56,13.70
2005,11,04,16,57,12.30
2005,11,04,16,58,9.70
2005,11,04,16,59,9.90
2005,11,04,17,00,10.20
2005,11,04,17,01,15.10
2005,11,04,17,02,15.60
2005,11,04,17,03,7.50
2005,11,04,17,04,9.90
2005,11,04,17,05,11.10
2005,11,04,17,06,9.10
2005,11,04,17,07,11.70
2005,11,04,17,08,11.10
2005,11,04,17,09,16.10
2005,11,04,17,10,12.10
2005,11,04,17,11,11.70
2005,11,04,17,12,11.30
2005,11,04,17,13,6.40
2005,11,04,17,14,7.00
2005,11,04,17,15,2.70
2005,11,04,17,16,11.30
2005,11,04,17,17,13.20
2005,11,04,17,18,9.40
2005,11,04,17,19,6.60
2005,11,04,17,20,13.20
2005,11,04,17,21,11.70
2005,11,04,17,22,15.50
2005,11,04,17,23,16.20
2005,11,04,17,24,16.20
2005,11,04,17,25,12.10
2005,11,04,17,26,19.50
2005,11,04,17,27,12.10
2005,11,04,17,28,13.90
2005,11,04,17,29,10.00
2005,11,04,17,30,12.60
2005,11,04,17,31,16.30
2005,11,04,17,32,13.40
2005,11,04,17,33,11.40
2005,11,04,17,34,16.40
2005,11,04,17,35,14.70
2005,11,04,17,36,15.10
2005,11,04,17,37,6.70
2005,11,04,17,38,8.30
2005,11,04,17,39,7.00
2005,11,04,17,40,7.00
2005,11,04,17,41,9.30
2005,11,04,17,42,4.20
2005,11,04,17,43,4.10
2005,11,04,17,44,7.30
2005,11,04,17,45,6.20
2005,11,04,17,46,8.80
2005,11,04,17,47,6.20
2005,11,04,17,48,4.30